Theta_e
305 307 309 311 311 309 307 306 304 303 301 300 299 298 297 297 295 295 295 294 294 293 293 293 292 292 292 291 289 288 288 288 289 291 291 291 291 290 291 294 295 294 293
303 304 307 308 308 306 304 303 302 301 299 299 298 297 296 294 294 294 294 293 293 293 292 291 291 291 291 290 288 287 288 287 288 288 289 290 289 291 294 294 294 294 293
300 302 305 304 304 303 302 301 300 299 298 297 296 295 294 294 294 294 293 292 292 292 291 291 290 290 290 288 287 287 287 286 286 286 287 288 287 289 293 294 294 294 292
299 300 301 302 302 301 300 299 298 297 296 296 295 293 294 293 293 293 293 292 293 292 292 292 291 290 289 287 286 286 285 286 286 286 287 286 286 289 291 292 292 292 291
299 300 300 300 299 298 297 297 296 296 295 294 293 293 293 293 293 292 292 292 292 292 292 291 291 289 287 287 286 286 285 285 285 286 287 287 287 289 291 289 288 288 289
297 297 297 297 296 296 295 295 294 294 293 294 294 293 293 293 292 292 291 291 291 291 291 290 289 288 287 286 285 285 285 286 285 286 287 289 289 289 288 287 286 287 288
295 295 294 294 294 294 293 293 293 293 293 293 293 293 293 292 290 290 290 290 290 291 289 288 288 287 287 286 286 285 285 285 285 287 287 287 287 286 286 285 286 286 287
293 293 292 292 292 292 292 292 293 294 294 293 292 291 291 291 290 290 289 289 289 289 288 287 286 286 286 286 286 286 285 285 285 285 287 287 286 285 285 285 285 285 286
291 292 292 291 292 293 293 293 292 292 292 291 291 291 290 290 289 289 288 289 288 288 288 287 286 286 285 285 284 285 286 287 287 287 287 286 286 286 285 284 285 284 285
289 290 290 290 290 289 289 290 290 290 290 289 289 289 289 289 289 288 288 287 287 287 287 286 286 285 285 285 284 284 286 287 287 287 287 286 286 285 284 284 284 284 284
289 289 289 288 289 288 288 287 287 287 287 287 287 286 286 287 287 286 286 284 285 284 285 285 285 285 284 284 284 284 285 285 285 286 286 286 286 285 285 285 285 284 284
287 287 287 287 288 288 288 288 287 286 286 286 286 286 286 286 286 286 286 285 285 284 284 284 284 283 283 283 284 284 284 285 285 285 285 285 286 286 286 285 285 285 285
287 287 287 287 286 285 285 285 284 285 285 285 285 285 285 285 285 285 285 284 283 283 283 283 283 283 282 282 283 283 283 284 284 284 284 284 285 285 284 284 284 284 284
286 285 284 284 284 284 284 284 284 284 283 283 283 283 283 283 283 283 283 283 283 282 282 282 282 282 282 282 282 282 282 283 283 283 284 284 283 283 283 283 283 283 283
283 283 283 283 283 283 283 283 283 282 282 281 281 281 281 280 280 281 281 281 281 281 281 281 282 281 280 279 278 279 280 281 282 283 283 282 282 282 282 282 282 282 282
283 283 283 283 282 282 282 282 282 282 282 282 282 281 281 281 281 281 281 281 280 280 281 281 280 279 279 278 278 278 278 278 279 281 282 282 282 280 281 281 281 281 281
282 282 282 282 282 282 282 282 282 282 282 282 282 282 282 282 282 282 282 281 281 280 281 281 281 281 280 279 278 278 278 277 277 277 277 277 277 277 278 280 281 281 281
283 282 282 282 282 282 282 282 282 282 282 282 282 282 282 282 282 282 281 281 281 281 281 281 281 280 280 280 279 279 279 278 278 277 277 277 277 277 277 277 277 277 279
281 282 281 281 281 281 281 281 281 282 282 282 281 281 281 281 281 281 281 281 281 281 280 280 280 280 280 279 280 279 279 279 279 279 278 278 277 276 277 276 276 276 276
282 281 281 281 281 281 281 282 282 282 282 283 283 283 281 281 281 281 281 280 280 280 280 279 279 279 279 279 279 279 279 279 279 279 279 278 278 277 276 276 276 276 276
282 281 281 281 281 281 281 281 281 281 282 282 281 280 280 280 280 280 280 279 279 279 279 278 278 278 278 278 278 278 278 278 278 278 278 278 278 278 277 276 275 275 275
280 280 280 280 280 280 280 280 280 280 280 280 280 280 279 279 279 279 279 279 278 278 277 277 277 277 277 277 276 276 276 276 276 276 276 276 276 276 276 276 276 275 275
279 279 279 279 279 279 279 279 279 279 279 279 279 279 279 279 278 278 277 276 276 276 275 275 275 275 275 275 275 275 275 275 273 273 273 273 273 274 274 275 275 275 274
277 277 278 278 277 277 278 278 278 278 278 278 277 277 277 276 276 276 276 275 275 275 274 274 274 273 273 273 274 274 274 273 273 272 271 271 271 272 272 272 273 274 273
275 275 276 276 276 276 276 276 276 276 276 275 275 275 275 275 275 274 274 273 273 273 273 273 273 273 272 272 272 273 273 273 272 271 271 270 270 270 270 271 271 272 272
274 274 274 274 274 274 274 274 274 274 274 274 274 274 274 274 274 274 274 274 275 275 275 274 274 274 273 272 271 271 271 272 272 271 270 270 270 270 269 270 270 270 271
Wind_Speed
43 48 50 49 45 41 39 36 33 30 30 31 30 29 27 26 25 24 23 23 22 22 22 22 22 21 20 20 20 20 20 21 24 24 20 14 16 17 18 16 13 13 13
36 42 44 43 41 39 36 33 30 29 28 28 28 27 26 25 24 24 23 23 23 23 23 24 24 23 23 22 22 22 22 22 24 25 23 24 27 25 22 13 13 12 12
30 34 36 35 35 33 31 29 28 28 27 27 27 26 25 24 24 23 23 24 24 24 25 26 26 24 23 23 22 22 22 22 22 23 24 23 22 20 17 18 18 13 12
25 30 32 32 31 30 29 28 27 27 26 26 25 24 24 23 24 23 24 24 24 24 23 23 22 22 20 20 20 21 21 21 21 21 22 23 22 17 16 13 15 16 15
23 25 27 28 27 27 27 26 27 26 25 24 24 24 24 25 24 23 23 23 22 22 22 22 21 20 19 19 20 20 20 21 21 22 23 23 23 17 13 12 14 15 16
21 22 23 23 23 24 23 24 25 24 23 23 24 24 23 23 23 23 21 22 21 21 21 21 19 18 19 20 20 20 22 22 23 23 24 22 17 12 11 13 14 15 15
17 18 19 21 21 21 21 22 22 21 20 21 22 23 23 22 21 21 21 21 20 20 20 19 18 18 17 18 19 19 21 21 22 24 25 18 13 10 12 14 16 18 19
15 15 15 16 17 18 18 17 16 18 20 20 20 20 21 21 22 22 21 22 22 21 20 19 18 17 17 18 19 21 24 25 25 23 24 20 20 17 18 17 20 22 23
14 14 15 16 16 17 17 16 16 17 17 18 19 20 21 20 21 22 21 22 23 23 22 21 20 20 18 18 20 22 24 26 26 27 26 22 19 19 20 21 25 23 26
13 14 15 14 13 11 12 14 15 16 16 17 17 18 18 19 19 18 19 19 21 21 21 20 18 18 16 16 19 21 23 22 21 22 23 22 21 22 21 22 24 24 23
9 10 10 10 11 12 11 11 11 12 12 13 13 14 14 15 15 16 16 17 18 18 18 17 16 15 15 16 16 19 20 16 17 18 20 21 23 24 24 24 25 27 27
8 8 9 8 8 8 9 8 9 9 10 9 9 11 11 11 11 13 14 16 16 17 17 15 15 14 14 16 18 19 20 18 19 18 19 20 21 22 23 24 24 28 29
7 6 5 5 6 8 8 8 8 7 7 7 7 7 7 7 8 9 9 8 11 13 13 12 13 13 13 16 18 19 20 22 24 26 25 23 21 22 23 24 24 24 27
5 5 5 6 6 6 6 5 5 5 5 5 5 5 5 6 5 6 7 9 11 11 12 12 12 13 13 14 16 17 21 21 21 21 20 19 19 20 21 23 25 24 25
4 4 4 4 4 5 6 6 7 6 6 6 5 5 5 5 5 3 3 4 6 8 10 10 13 13 13 13 13 12 14 18 22 25 26 25 24 25 26 25 23 22 25
4 4 4 5 5 6 7 6 7 7 6 5 6 5 4 4 3 3 4 5 7 8 10 9 10 11 11 12 13 13 12 12 12 15 21 22 21 21 20 18 16 16 18
4 4 5 5 6 6 6 6 6 6 5 5 5 5 5 6 6 7 8 10 11 11 16 16 15 14 13 14 15 15 15 15 16 16 16 17 18 17 17 17 17 17 19
6 7 7 7 7 7 8 9 10 10 10 9 9 10 10 10 11 13 14 16 18 16 20 20 20 19 19 19 19 19 19 19 19 19 19 20 20 20 20 19 18 18 20
9 9 10 11 11 12 13 14 14 14 14 13 14 16 16 17 18 19 20 22 22 23 24 25 25 26 26 25 25 25 25 24 24 24 24 23 23 24 23 22 21 21 20
12 13 14 15 16 17 17 18 18 19 19 19 20 20 21 23 24 24 25 26 27 28 28 29 29 30 30 30 30 30 30 30 30 30 29 28 27 28 27 25 25 25 24
19 19 20 20 21 21 22 22 23 23 25 26 26 25 26 29 28 28 27 28 29 30 31 32 32 32 32 32 33 33 33 33 33 34 34 33 31 32 30 29 28 27 26
22 23 23 23 23 24 24 26 27 28 29 30 30 29 29 32 33 35 35 34 31 30 30 31 31 31 30 29 28 29 30 31 32 33 34 34 34 33 32 32 31 30 29
26 26 27 27 27 28 29 29 31 32 33 34 34 35 34 33 33 31 28 25 23 22 22 23 23 22 21 22 24 26 28 28 27 28 30 31 31 32 32 32 31 31 31
28 29 30 30 30 31 32 33 33 33 33 33 31 29 26 24 24 24 23 22 22 22 22 24 25 26 25 24 23 22 22 22 23 23 22 23 25 26 28 29 29 29 29
24 25 26 27 27 27 27 27 27 26 26 26 25 24 23 23 23 23 23 24 25 26 25 26 26 26 26 25 24 21 20 19 18 17 17 18 18 19 22 24 24 25 26
27 27 27 26 26 26 26 26 26 25 26 25 25 25 25 26 26 25 24 25 25 26 25 25 24 24 24 23 23 23 22 19 16 15 14 15 16 17 18 19 20 21 22
Wind_Direction
231 228 226 223 222 221 221 222 224 226 224 222 223 228 232 240 245 248 249 251 252 253 255 257 260 261 255 251 249 248 246 242 246 242 241 238 246 252 258 264 247 249 256
231 228 222 216 214 213 214 217 221 221 219 221 222 228 235 240 243 246 249 253 255 256 258 258 260 263 257 250 249 250 251 248 247 252 256 255 256 255 258 258 239 243 247
225 217 211 207 205 205 209 212 213 212 214 219 224 230 236 240 244 248 252 255 258 259 260 259 261 258 252 248 248 248 249 249 246 253 261 267 269 266 259 244 241 246 238
204 199 196 196 197 201 205 206 209 212 217 223 230 234 238 242 246 250 253 257 257 256 255 255 254 252 250 246 245 246 246 248 248 251 257 264 267 263 257 241 240 243 242
179 182 184 188 192 197 201 205 209 214 219 226 231 234 238 242 247 251 253 255 255 253 254 254 253 252 247 245 246 245 244 246 248 251 254 258 262 258 244 229 241 244 247
178 183 187 191 195 197 202 208 213 217 221 228 234 238 242 246 246 247 251 251 251 251 254 254 251 249 245 241 243 247 246 246 250 250 252 250 254 250 219 231 248 250 256
185 188 190 192 196 203 209 214 216 219 224 231 235 239 242 244 244 246 249 252 249 250 251 252 251 249 245 244 243 238 246 256 254 252 246 243 249 239 236 242 253 255 254
192 193 199 204 203 203 205 210 219 227 230 232 236 239 241 243 243 245 247 249 251 251 252 252 254 252 247 249 247 243 241 241 244 250 251 245 249 247 249 252 251 255 257
192 195 197 198 198 203 209 214 221 227 231 234 237 239 241 243 247 246 247 250 252 254 255 254 253 253 252 253 256 254 252 250 248 243 245 254 255 252 253 252 258 265 269
186 191 200 204 203 205 215 219 225 228 230 233 237 241 242 241 244 247 247 249 251 253 257 260 258 259 258 257 259 263 261 257 251 245 247 252 257 258 259 259 261 262 266
201 202 205 207 204 208 211 217 229 232 233 235 236 242 244 246 245 243 239 238 247 254 258 259 259 256 255 255 254 262 267 276 272 269 254 250 253 255 255 253 256 260 260
213 206 203 202 203 209 216 216 224 232 232 231 233 236 239 241 238 236 236 238 241 249 254 261 261 255 251 246 245 249 258 265 271 268 268 264 261 259 261 263 261 260 260
204 204 208 220 225 220 216 212 213 217 218 219 220 224 228 229 227 226 220 222 229 236 252 256 259 256 250 245 246 244 245 246 250 255 259 262 264 266 264 266 264 260 257
215 218 224 214 214 212 212 207 204 205 203 204 198 208 201 211 213 220 228 230 235 242 249 251 254 258 259 258 256 250 246 242 246 249 253 258 260 262 264 266 269 268 265
227 224 220 219 218 209 202 196 191 185 182 182 179 177 170 184 201 214 214 219 235 249 256 258 256 260 263 266 266 264 258 255 252 252 256 261 264 267 269 272 268 259 254
231 226 212 199 204 201 194 186 183 181 176 175 180 184 198 203 224 235 256 259 252 270 278 269 266 266 270 273 272 274 275 273 273 258 255 260 268 274 270 261 261 250 254
201 202 201 202 197 200 201 197 194 205 208 211 232 245 251 253 259 271 268 269 264 256 262 276 279 278 277 271 273 275 273 274 275 274 274 274 276 277 272 264 261 260 256
226 225 220 222 226 229 235 236 234 235 233 238 247 255 261 264 266 269 267 265 264 268 270 273 276 274 273 271 269 270 269 269 270 270 269 271 273 275 275 276 273 267 263
236 241 243 244 246 247 248 250 251 253 253 253 251 263 270 271 272 271 270 270 274 274 272 271 273 272 272 271 269 268 267 267 268 266 264 263 264 266 267 270 271 270 267
262 258 258 259 258 259 260 262 263 265 266 268 271 274 273 274 274 275 277 277 277 279 278 276 275 274 274 275 275 275 274 273 272 271 270 267 265 263 263 262 264 266 267
265 264 260 259 261 263 264 266 267 266 267 270 275 279 281 281 279 278 277 276 275 275 273 272 272 272 272 273 273 273 274 273 272 270 268 267 265 263 262 260 260 261 261
268 268 266 264 263 264 267 268 269 272 275 278 280 280 280 281 284 285 285 283 280 275 272 270 269 269 270 272 275 276 276 275 273 271 268 265 262 260 259 257 255 255 256
271 269 269 270 271 271 271 273 274 276 278 279 280 282 281 280 280 280 279 278 275 273 271 269 269 267 267 270 276 281 284 285 283 276 271 267 263 260 258 257 255 252 251
268 269 270 270 271 272 273 274 274 275 277 278 278 278 277 275 274 273 272 271 270 269 268 269 272 273 271 270 273 277 282 286 286 284 279 271 266 262 259 257 255 253 251
276 276 275 274 274 273 273 273 274 274 274 274 275 276 275 274 273 273 273 272 271 270 268 267 267 268 269 268 270 276 279 284 287 285 281 277 272 265 261 258 255 253 248
279 278 278 277 276 275 274 274 274 274 274 274 275 275 275 274 273 273 272 271 272 272 272 272 270 268 266 265 266 270 273 277 279 279 277 274 271 266 263 260 256 252 249